Date,TemperatureHighF,TemperatureAvgF,TemperatureLowF,DewpointHighF,DewpointAvgF,DewpointLowF,HumidityHigh,HumidityAvg,HumidityLow,PressureMaxIn,PressureMinIn,WindSpeedMaxMPH,WindSpeedAvgMPH,GustSpeedMaxMPH,PrecipitationSumIn
2014-1-1,23.0,20.2,16.0,-99.9,-99.9,-99.9,0,0,100,0.00,40.00,15,10,18,0.00
2014-1-2,16.0,12.0,3.0,-99.9,-99.9,-99.9,0,0,100,0.00,40.00,16,9,20,0.00
2014-1-3,28.0,12.3,-6.0,-99.9,-99.9,-99.9,0,0,100,0.00,40.00,12,7,18,0.00
2014-1-4,39.0,29.1,19.0,-99.9,-99.9,-99.9,0,0,100,0.00,40.00,15,8,21,0.00
2014-1-5,19.0,11.7,1.0,-99.9,-99.9,-99.9,0,0,100,0.00,40.00,22,15,33,0.00
2014-1-6,-1.0,-5.6,-11.0,-99.9,-99.9,-99.9,0,0,100,0.00,40.00,15,8,25,0.00
2014-1-7,20.0,5.6,-9.0,-99.9,-99.9,-99.9,0,0,100,0.00,40.00,9,4,12,0.00
2014-1-8,17.0,13.5,8.0,-99.9,-99.9,-99.9,0,0,100,0.00,40.00,12,6,14,0.00
2014-1-9,30.0,20.7,15.0,-99.9,-99.9,-99.9,0,0,100,0.00,40.00,8,5,10,0.00
2014-1-10,42.0,36.3,30.0,-99.9,-99.9,-99.9,0,0,100,0.00,40.00,12,6,18,0.32
2014-1-11,43.0,37.0,30.0,-99.9,-99.9,-99.9,0,0,100,0.00,40.00,8,5,16,0.05
2014-1-12,57.0,39.7,27.0,-99.9,-99.9,-99.9,0,0,100,0.00,40.00,13,6,20,0.00
2014-1-13,47.0,37.8,29.0,-99.9,-99.9,-99.9,0,0,100,0.00,40.00,12,4,22,0.01
2014-1-14,40.0,32.7,25.0,-99.9,-99.9,-99.9,0,0,100,0.00,40.00,20,10,31,0.02
2014-1-15,28.0,21.7,16.0,-99.9,-99.9,-99.9,0,0,100,0.00,40.00,13,8,21,0.00
2014-1-16,43.0,32.9,16.0,-99.9,-99.9,-99.9,0,0,100,0.00,40.00,22,8,33,0.00
2014-1-17,23.0,15.7,10.0,-99.9,-99.9,-99.9,0,0,100,0.00,40.00,16,8,26,0.00
2014-1-18,41.0,26.3,13.0,-99.9,-99.9,-99.9,0,0,100,0.00,40.00,20,8,30,0.01
2014-1-19,52.0,35.3,20.0,-99.9,-99.9,-99.9,0,0,100,0.00,40.00,12,8,19,0.01
2014-1-20,44.0,38.8,30.0,-99.9,-99.9,-99.9,0,0,100,0.00,40.00,25,4,35,0.00
2014-1-21,27.0,11.6,5.0,-99.9,-99.9,-99.9,0,0,100,0.00,40.00,27,10,38,0.00
2014-1-22,27.0,17.7,4.0,-99.9,-99.9,-99.9,0,0,100,0.00,40.00,19,9,28,0.00
2014-1-23,11.0,4.8,-2.0,-99.9,-99.9,-99.9,0,0,100,0.00,40.00,15,9,21,0.00
2014-1-24,38.0,20.6,1.0,-99.9,-99.9,-99.9,0,0,100,0.00,40.00,18,10,26,0.00
2014-1-25,41.0,31.1,21.0,-99.9,-99.9,-99.9,0,0,100,0.00,40.00,23,10,33,0.00
2014-1-26,51.0,38.3,18.0,-99.9,-99.9,-99.9,0,0,100,0.00,40.00,24,10,38,0.00
2014-1-27,16.0,7.7,4.0,-99.9,-99.9,-99.9,0,0,100,0.00,40.00,23,12,30,0.00
2014-1-28,18.0,8.4,-3.0,-99.9,-99.9,-99.9,0,0,100,0.00,40.00,8,4,16,0.00
2014-1-29,36.0,21.5,6.0,-99.9,-99.9,-99.9,0,0,100,0.00,40.00,14,6,20,0.00
2014-1-30,38.0,32.2,26.0,-99.9,-99.9,-99.9,0,0,100,0.00,40.00,16,10,25,0.00
2014-1-31,25.0,18.8,16.0,-99.9,-99.9,-99.9,0,0,100,0.00,40.00,13,9,17,0.00